Regional Weather Roundup
Issued by NWS Northern Indiana

Home | Current Version | Previous Version | Text Only | Print | Product List | Glossary Off
Versions: 1 2 3 4 5 6 7 8 9 10 11 12 13 14 15 16 17 18 19 20 21 22 23 24 25 26 27 28 29 30 31 32 33 34 35 36 37 38 39 40 41 42 43 44 45 46 47 48 49 50

576
ASUS43 KIWX 121900
RWRIWX

KIWX WEATHER ROUNDUP
NATIONAL WEATHER SERVICE NORTHERN INDIANA
200 PM EST FRI FEB 12 2016

NOTE: "FAIR" INDICATES FEW OR NO CLOUDS BELOW 12,000 FEET WITH NO
SIGNIFICANT WEATHER AND/OR OBSTRUCTIONS TO VISIBILITY.

* THESE STATIONS ARE NOT UNDER NWS QUALITY CONTROL. THEY ALSO MAY NOT
  REPORT WEATHER SUCH AS PRECIPITATION OR FOG.

INZ001>027-122000-
NORTHERN INDIANA

CITY           SKY/WX    TMP DP  RH WIND       PRES   REMARKS
GARY*          MOSUNNY   25   7  46 NW17G30   30.14F WCI  11
SOUTH BEND     LGT SNOW  19  10  68 NW18G30   30.09S WCI   4
ELKHART*       LGT SNOW  21  12  68 NW14G23   30.08R WCI   8
GOSHEN         SNOW      21  17  84 W17       30.05S VSB 1/2 WCI   7
ANGOLA*        CLOUDY    21  16  79 W14       29.99F WCI   8
FORT WAYNE     LGT SNOW  23  16  74 W21       30.05F WCI   8

$$
INZ028>050-122000-
CENTRAL INDIANA

CITY           SKY/WX    TMP DP  RH WIND       PRES   REMARKS
LAFAYETTE      LGT SNOW  25  18  74 W18G24    30.14F WCI  11
KOKOMO*        CLOUDY    25  18  74 W20G26    30.09F WCI  11
MUNCIE*        FLURRIES  25  15  66 W15       30.08S WCI  13
INDIANAPOLIS   FLURRIES  25  16  68 W18       30.12F WCI  11

$$
MIZ043>046-050>051-056>058-064>065-071>073-077>080-122000-
SOUTHWEST LOWER MICHIGAN

CITY           SKY/WX    TMP DP  RH WIND       PRES   REMARKS
BATTLE CREEK   PTSUNNY   21  11  65 NW18      30.00F WCI   6
BENTON HARBOR  LGT SNOW  20  10  65 NW17G29   30.09F WCI   5
COLDWATER*     LGT SNOW  22  17  79 W14G22    29.99S WCI   9
HILLSDALE*     LGT SNOW  21  17  81 W13G18    29.94F VSB 1   WCI   9
HOLLAND        LGT SNOW  20   9  62 NW17G26   30.05F WCI   5
GRAND RAPIDS   PTSUNNY   20   6  55 NW18G29   30.01S WCI   5
KALAMAZOO      LGT SNOW  20  12  71 NW18G30   30.02S VSB 1   WCI   5
STURGIS*       LGT SNOW  20  16  83 NW10G20   30.01S VSB 1   WCI   9
THREE RIVERS*  LGT SNOW  21  16  79 NW20G26   30.04S WCI   6

$$
OHZ001>008-015>018-024>025-122000-
NORTHWEST OHIO

CITY           SKY/WX    TMP DP  RH WIND       PRES   REMARKS
DEFIANCE       CLOUDY    24  11  57 W13G24    30.02F WCI  12
FINDLAY        CLOUDY    25  11  55 W24       30.00F WCI   9
TOLEDO EXPRESS CLOUDY    23  13  65 W20G31    29.99F WCI   8
TOLEDO METCALF   N/A    N/A N/A N/A MISG      30.00F
LIMA           CLOUDY    24  12  60 W18G29    30.02F WCI  10

$$
AND FOR LAKE MICHIGAN COASTAL AND OPEN LAKE BUOY OBSERVATIONS

STATION/POSITION TEMP    WIND        PRES    VSBY  WAVE
                 AIR SEA DIR/SP/G                  HT/PER
                 (F)     (DEG/KT/KT) (MB)    (MI)  (FT/S)
CALUMET HARBOR    22     280/ 12/ 21 1020.1F
MICHIGAN CITY     21     270/ 24/ 27   N/A
BURNS HARBOR      21     300/ 17/ 23 1020.7S
SAINT JOSEPH      22     290/ 19/ 25 1020.0R

$$
&&




USA.gov is the U.S. government's official web portal to all federal, state and local government web resources and services.